Simultaneous Nadir Overpasses (SNOs) Predictions

Prediction of SNOs over PacNW region [( 10.00, 139.50) to ( 22.70, 165.60)] between AQUA and NPP Satellites:

Table of predicted SNOs over PacNW region for the next 30.0 days since TLE Epoch: 9/29/2017
Index Date (AQUA) Time (AQUA) AQUA Lat,Lon Date (NPP) Time (NPP) NPP Lat,Lon Distance(km) Time Diff (sec)
1 09/29/2017 15:09:41 22.60, 159.83 09/29/2017 15:11:38 23.18, 157.22 275.31 117
2 10/02/2017 03:31:31 22.65, 147.51 10/02/2017 03:28:02 23.22, 145.62 203.53 209
3 10/07/2017 15:59:08 22.62, 147.47 10/07/2017 16:02:22 23.27, 144.53 309.67 194
4 10/15/2017 15:09:41 22.60, 159.83 10/15/2017 15:11:38 23.21, 157.18 279.69 117
5 10/18/2017 03:31:31 22.66, 147.51 10/18/2017 03:28:02 23.15, 145.59 203.45 209
6 10/23/2017 15:59:05 22.59, 147.47 10/23/2017 16:02:22 23.24, 144.48 315.29 197




NCC Satellite Simultaneous Nadir Overpasses (SNOs) Prediction Service
